Location: Hannover
(52.3723°N, 9.7339°E)
Time: 23:53:15
(UTC+01:00)

ITAMSAT 1 - Visible Passes

Search period start: 23 January 2020 00:00
Search period end: 02 February 2020 00:00
Orbit: 783 x 797 km, 98.9° (Epoch: 23 January)

Date Brightness Start Highest point End Pass type
(mag) Time Alt. Az. Time Alt. Az. Time Alt. Az.
23 Jan 9.2 05:29:05 10° NNE 05:33:51 36° E 05:38:36 10° SSE visible
23 Jan 8.0 07:08:32 10° N 07:13:24 42° WNW 07:18:16 10° SW visible
23 Jan 10.7 18:35:12 10° WSW 18:38:07 15° W 18:41:03 10° NW visible
24 Jan 10.1 05:00:10 10° NE 05:04:08 22° E 05:08:03 10° SE visible
24 Jan 7.6 06:38:54 10° NNE 06:44:05 69° WNW 06:49:13 10° SSW visible
24 Jan 10.1 18:04:03 10° SSW 18:08:17 25° W 18:12:34 10° NW visible
25 Jan 10.7 04:32:03 10° ENE 04:34:15 13° E 04:36:26 10° ESE visible
25 Jan 7.9 06:09:25 10° NNE 06:14:38 73° ESE 06:19:49 10° S visible
25 Jan 9.2 17:33:42 10° S 17:38:36 42° W 17:43:31 10° NNW visible
26 Jan 8.9 05:40:07 10° NNE 05:45:04 43° E 05:50:00 10° S visible
26 Jan 8.2 07:19:46 10° N 07:24:28 36° WNW 07:29:10 10° SW visible
26 Jan 10.9 18:47:23 10° WSW 18:49:26 12° W 18:51:29 10° WNW visible
27 Jan 9.8 05:11:04 10° NE 05:15:23 26° E 05:19:41 10° SSE visible
27 Jan 7.7 06:50:05 10° N 06:55:11 58° WNW 07:00:16 10° SW visible
27 Jan 10.5 18:15:41 10° SW 18:19:33 21° W 18:23:27 10° NW visible
28 Jan 10.5 04:42:31 10° NE 04:45:33 15° E 04:48:35 10° ESE visible
28 Jan 7.7 06:20:33 10° NNE 06:25:47 87° ESE 06:31:00 10° SSW visible
28 Jan 9.6 17:45:06 10° SSW 17:49:48 35° W 17:54:33 10° NNW visible
29 Jan 8.5 05:51:11 10° NNE 05:56:16 52° E 06:01:20 10° S visible
29 Jan 8.4 07:31:01 10° N 07:35:31 30° WNW 07:40:00 10° WSW visible
30 Jan 9.5 05:22:01 10° NNE 05:26:37 31° E 05:31:12 10° SSE visible
30 Jan 7.9 07:01:17 10° N 07:06:17 48° WNW 07:11:15 10° SW visible
30 Jan 10.6 18:27:26 10° SW 18:30:50 17° W 18:34:14 10° NW visible
31 Jan 10.3 04:53:13 10° NE 04:56:51 19° E 05:00:27 10° SE visible
31 Jan 7.6 06:31:42 10° NNE 06:36:55 79° WNW 06:42:07 10° SSW visible
31 Jan 9.9 17:56:34 10° SSW 18:01:02 29° W 18:05:32 10° NW visible
01 Feb 10.9 04:25:49 10° ENE 04:26:56 11° E 04:28:03 10° E visible
01 Feb 8.1 06:02:16 10° NNE 06:07:27 63° ESE 06:12:36 10° S visible
